| time (UTC) | temp F | wind direction | speed knots | gust knots | rain 1hr in | rain 24hr in | rain mn in | humidity % | barometer mb |
| 20260506073058 | 26 | 304 | 0.0 | 0.0 | 0.00 | 0.00 | 0.00 | 93 | 1007.0 |
| 20260506071558 | 26 | 304 | 0.0 | 0.0 | 0.00 | 0.00 | 0.00 | 93 | 1007.0 |
| 20260506070118 | 26 | 304 | 0.0 | 0.0 | 0.00 | 0.00 | 0.00 | 93 | 1006.9 |
| 20260506061616 | 27 | 304 | 0.0 | 0.0 | 0.00 | 0.00 | 0.00 | 93 | 1006.7 |
| 20260506050130 | 28 | 304 | 0.0 | 2.6 | 0.00 | 0.00 | 0.00 | 94 | 1005.9 |
| 20260506044522 | 28 | 247 | 0.9 | 3.5 | 0.00 | 0.00 | 0.00 | 93 | 1005.9 |
| 20260506043045 | 29 | 270 | 0.0 | 2.6 | 0.00 | 0.00 | 0.00 | 94 | 1005.7 |
| 20260506041521 | 29 | 263 | 0.0 | 0.0 | 0.00 | 0.00 | 0.00 | 94 | 1005.3 |
| 20260506040007 | 30 | 263 | 0.0 | 0.0 | 0.00 | 0.00 | 0.00 | 94 | 1005.0 |
| 20260506034622 | 30 | 263 | 0.0 | 1.7 | 0.00 | 0.00 | 0.00 | 94 | 1004.9 |
| 20260506033131 | 30 | 263 | 0.0 | 1.7 | 0.00 | 0.00 | 0.00 | 94 | 1004.9 |
| 20260506031604 | 30 | 172 | 1.7 | 3.5 | 0.00 | 0.00 | 0.00 | 94 | 1004.7 |
| 20260506030115 | 30 | 208 | 0.0 | 3.5 | 0.00 | 0.00 | 0.00 | 94 | 1004.4 |
| 20260506024616 | 30 | 261 | 0.9 | 2.6 | 0.00 | 0.00 | 0.00 | 94 | 1004.1 |
| 20260506023037 | 30 | 188 | 0.0 | 6.1 | 0.00 | 0.00 | 0.00 | 94 | 1003.7 |
| 20260506021523 | 30 | 263 | 0.0 | 0.0 | 0.00 | 0.00 | 0.00 | 94 | 1003.4 |
| 20260506020050 | 30 | 263 | 0.0 | 1.7 | 0.00 | 0.00 | 0.00 | 93 | 1003.2 |
| 20260506014603 | 30 | 263 | 0.0 | 1.7 | 0.00 | 0.00 | 0.00 | 93 | 1002.8 |
| 20260506013112 | 31 | 268 | 0.0 | 3.5 | 0.00 | 0.00 | 0.00 | 93 | 1002.5 |
| 20260506011604 | 31 | 315 | 0.0 | 0.0 | 0.00 | 0.00 | 0.00 | 93 | 1001.9 |
| 20260506010101 | 31 | 315 | 0.0 | 0.0 | 0.00 | 0.00 | 0.00 | 93 | 1001.6 |
| 20260506004630 | 31 | 345 | 0.0 | 3.5 | 0.00 | 0.00 | 0.00 | 93 | 1001.4 |
| 20260506003129 | 31 | 294 | 0.9 | 5.2 | 0.00 | 0.00 | 0.00 | 92 | 1001.5 |
| 20260506001517 | 32 | 306 | 1.7 | 4.3 | 0.00 | 0.00 | 0.00 | 91 | 1001.9 |
| 20260506000110 | 33 | 237 | 1.7 | 2.6 | 0.00 | 0.00 | 0.00 | 90 | 1001.3 |
| 20260505234618 | 33 | 237 | 0.9 | 4.3 | 0.00 | 0.00 | 0.00 | 89 | 1000.9 |
| 20260505233100 | 34 | 193 | 0.9 | 6.1 | 0.00 | 0.00 | 0.00 | 88 | 1000.4 |
| 20260505231559 | 34 | 150 | 0.9 | 5.2 | 0.00 | 0.00 | 0.00 | 87 | 1000.3 |
| 20260505230116 | 36 | 275 | 1.7 | 4.3 | 0.00 | 0.00 | 0.00 | 84 | 1000.3 |
| 20260505224609 | 37 | 325 | 1.7 | 10.4 | 0.00 | 0.00 | 0.00 | 82 | 999.8 |
| 20260505223118 | 37 | 275 | 3.5 | 12.2 | 0.00 | 0.00 | 0.00 | 83 | 999.5 |
| 20260505221618 | 36 | 170 | 3.5 | 7.8 | 0.00 | 0.00 | 0.00 | 84 | 999.4 |
| 20260505220147 | 36 | 145 | 2.6 | 7.8 | 0.00 | 0.00 | 0.00 | 84 | 999.5 |
| 20260505214616 | 35 | 163 | 2.6 | 9.6 | 0.00 | 0.00 | 0.00 | 88 | 999.6 |
| 20260505213054 | 34 | 150 | 3.5 | 7.8 | 0.00 | 0.00 | 0.00 | 90 | 999.9 |
| 20260505211611 | 33 | 160 | 1.7 | 7.0 | 0.00 | 0.00 | 0.00 | 91 | 1000.1 |
| 20260505204601 | 35 | 163 | 3.5 | 7.8 | 0.00 | 0.00 | 0.00 | 85 | 1000.2 |
| 20260505203104 | 37 | 159 | 1.7 | 6.1 | 0.00 | 0.00 | 0.00 | 83 | 1000.3 |
| 20260505201615 | 37 | 244 | 0.9 | 6.1 | 0.00 | 0.00 | 0.00 | 82 | 999.9 |
| 20260505200108 | 37 | 210 | 1.7 | 9.6 | 0.00 | 0.00 | 0.00 | 82 | 999.9 |
| 20260505194609 | 36 | 155 | 2.6 | 8.7 | 0.00 | 0.00 | 0.00 | 85 | 1000.0 |
| 20260505193122 | 37 | 196 | 3.5 | 7.0 | 0.00 | 0.00 | 0.00 | 83 | 1000.1 |
| 20260505191628 | 36 | 254 | 0.9 | 7.8 | 0.00 | 0.00 | 0.00 | 86 | 1000.1 |
| 20260505190013 | 36 | 192 | 3.5 | 7.8 | 0.00 | 0.00 | 0.00 | 85 | 999.8 |
| 20260505184528 | 36 | 185 | 4.3 | 9.6 | 0.00 | 0.00 | 0.00 | 87 | 1000.0 |
| 20260505183102 | 35 | 163 | 3.5 | 8.7 | 0.00 | 0.00 | 0.00 | 90 | 1000.0 |
| 20260505181505 | 35 | 196 | 4.3 | 8.7 | 0.00 | 0.00 | 0.00 | 91 | 999.9 |
| 20260505180020 | 34 | 184 | 6.1 | 10.4 | 0.00 | 0.00 | 0.00 | 91 | 1000.1 |
| 20260505174507 | 35 | 208 | 4.3 | 12.2 | 0.00 | 0.00 | 0.00 | 90 | 1000.0 |
| 20260505173022 | 35 | 166 | 3.5 | 7.8 | 0.00 | 0.00 | 0.00 | 90 | 1000.0 |
| 20260505171536 | 34 | 211 | 3.5 | 7.8 | 0.00 | 0.00 | 0.00 | 90 | 1000.2 |
| 20260505170044 | 34 | 128 | 5.2 | 7.8 | 0.00 | 0.00 | 0.00 | 90 | 1000.4 |
| 20260505164547 | 34 | 180 | 4.3 | 7.8 | 0.00 | 0.00 | 0.00 | 91 | 1000.3 |
| 20260505163108 | 34 | 150 | 3.5 | 7.8 | 0.00 | 0.00 | 0.00 | 91 | 1000.4 |
| 20260505161623 | 34 | 138 | 2.6 | 8.7 | 0.00 | 0.00 | 0.00 | 90 | 1000.4 |
| 20260505160112 | 34 | 201 | 3.5 | 8.7 | 0.00 | 0.00 | 0.00 | 90 | 1000.4 |
| 20260505153052 | 34 | 144 | 2.6 | 8.7 | 0.00 | 0.00 | 0.00 | 90 | 1000.4 |
| 20260505151553 | 35 | 148 | 5.2 | 7.8 | 0.00 | 0.00 | 0.00 | 88 | 1000.3 |
| 20260505150105 | 35 | 146 | 2.6 | 5.2 | 0.00 | 0.00 | 0.00 | 87 | 1000.3 |
| 20260505124549 | 35 | 173 | 0.0 | 0.9 | 0.00 | 0.00 | 0.00 | 93 | 999.9 |
| 20260505123046 | 35 | 173 | 0.0 | 4.3 | 0.00 | 0.00 | 0.00 | 93 | 999.7 |
| 20260505121551 | 35 | 175 | 0.0 | 0.0 | 0.00 | 0.00 | 0.00 | 92 | 999.7 |
| 20260505120114 | 35 | 175 | 0.0 | 0.0 | 0.00 | 0.00 | 0.00 | 92 | 999.5 |
| 20260505114614 | 35 | 175 | 0.0 | 0.0 | 0.00 | 0.00 | 0.00 | 92 | 999.9 |
| 20260505113120 | 35 | 175 | 0.0 | 0.0 | 0.00 | 0.00 | 0.00 | 92 | 999.9 |
| 20260505111557 | 36 | 175 | 0.0 | 0.0 | 0.00 | 0.00 | 0.00 | 92 | 999.9 |
| 20260505110110 | 36 | 175 | 0.0 | 0.0 | 0.00 | 0.00 | 0.00 | 92 | 999.8 |
| 20260505101525 | 35 | 153 | 1.7 | 5.2 | 0.00 | 0.00 | 0.00 | 91 | 999.6 |
| 20260505100007 | 35 | 139 | 0.9 | 4.3 | 0.00 | 0.00 | 0.00 | 91 | 999.8 |
| 20260505094542 | 35 | 123 | 2.6 | 6.1 | 0.00 | 0.00 | 0.00 | 91 | 999.9 |
| 20260505093051 | 35 | 188 | 0.9 | 2.6 | 0.00 | 0.00 | 0.00 | 89 | 1000.0 |
| 20260505091614 | 35 | 315 | 0.0 | 0.0 | 0.00 | 0.00 | 0.00 | 88 | 999.7 |
| 20260505090057 | 35 | 315 | 0.0 | 0.0 | 0.00 | 0.00 | 0.00 | 88 | 999.8 |
| 20260505084548 | 35 | 315 | 0.0 | 0.0 | 0.00 | 0.00 | 0.00 | 88 | 999.7 |
| 20260505083057 | 35 | 315 | 0.0 | 0.0 | 0.00 | 0.00 | 0.00 | 87 | 1000.0 |
| 20260505081606 | 36 | 315 | 0.0 | 0.0 | 0.00 | 0.00 | 0.00 | 87 | 1000.3 |
| 20260505080112 | 36 | 315 | 0.0 | 0.0 | 0.00 | 0.00 | 0.00 | 88 | 1000.3 |
| 20260505074617 | 36 | 306 | 0.0 | 0.0 | 0.00 | 0.00 | 0.00 | 89 | 1000.4 |